Find Gregoire

NORAD ID: 56946 Int'l Des: 2023-084 Owner: ASPLB Country: B operational
LEOCIRCULARRETROGRADESSO

Live Position

Loading 3D Globe...

About Gregoire

Description loading...

Upcoming Passes

Passes for default location (London). Set your location on the main map for personalized predictions.

Altitude History

Loading altitude history...

Two-Line Element Set

1 56946U 23084Q 26105.93318606 .00005305 00000-0 15080-3 0 9997
2 56946 97.6146 247.4834 0007506 170.8093 189.3289 15.36600426158145
Epoch: Apr 15, 2026 • Age: 12 hours

Current Status

Altitude 467.6 km
Velocity 7.63 km/s
Sub-Earth Point -38.62°S, 63.04°E
Launch Date Jun 12, 2023
Age 2.8 years
Type other

Technical Details

Classification Payload
Mass 100.00 kg
Dry Mass 100.00 kg
Total Mass 100.00 kg
Length 1.00 m
Diameter 0.60 m
Span 1.00 m
Shape Box
Manufacturer ASPLB
Bus Type VSP
Phase Status In Orbit
Owner/State ASPLB/B

Most Searched